Weather History for Baton Rouge, LA

Change the Weather History Date:

Thursday, December 6, 2012

  Actual Average Record
Temperature  
Mean Temperature 64 °F 55 °F  
Max Temperature 69 °F 66 °F 84 °F (1916)
Min Temperature 59 °F 44 °F 23 °F (1907)
Degree Days  
Heating Degree Days 1 11  
Month to date heating degree days 7 63  
Since 1 July heating degree days 304 298  
Cooling Degree Days 0 1  
Month to date cooling degree days 7 6  
Year to date cooling degree days 2951 2807  
Growing Degree Days 14 (Base 50)    
Moisture  
Dew Point 61 °F    
Average Humidity 88    
Maximum Humidity 100    
Minimum Humidity 76    
Precipitation  
Precipitation 0.00 in 0.17 in 2.00 in (1920)
Month to date precipitation 1.49 0.99  
Year to date precipitation 57.20 56.04  
Snow  
Snow 0.00 in - - ()
Month to date snowfall 0.0  
Since 1 July snowfall 0.0  
Snow Depth 0.00 in    
Sea Level Pressure  
Sea Level Pressure 29.98 in    
Wind  
Wind Speed 2 mph (East)    
Max Wind Speed 9 mph    
Max Gust Speed 22 mph    
Visibility 8 miles    
Events Fog    
T = Trace of Precipitation, MM = Missing Value Source: NWS Daily Summary

Daily Weather History Graph

Daily Weather History Graph

Search for Another Location

Airport:

Trip Planner

Search our weather history database for the weather conditions in past years. The results will help you decide how hot, cold, wet, or windy it might be!

Date:

Astronomy

Dec. 06, 2012 Rise Set
Actual Time 6:48 AM CST 5:03 PM CST
Civil Twilight 6:21 AM CST 5:29 PM CST
Nautical Twilight 5:52 AM CST 5:59 PM CST
Astronomical Twilight 5:22 AM CST 6:28 PM CST
Moon No Moon Rise 12:04 PM CST (12/6)
Length of Visible Light 11h 07m
Length of Day
10h 15m
Waning Gibbous, 49% of the Moon is Illuminated
Dec 6
Waning Gibbous
Dec 13
New
Dec 19
First Quarter
Dec 28
Full
Jan 4
Last Quarter

Hourly Weather History & Observations

Time (CST) Temp. Dew Point Humidity Pressure Visibility Wind Dir Wind Speed Gust Speed Precip Events Conditions
12:13 AM 60.8 °F 60.8 °F 100% 30.03 in 10.0 mi ENE 6.9 mph - N/A   Overcast
12:53 AM 61.0 °F 61.0 °F 100% 30.02 in 10.0 mi Calm Calm - N/A   Overcast
1:16 AM 62.6 °F 60.8 °F 94% 30.02 in 10.0 mi Calm Calm - N/A   Overcast
1:53 AM 62.1 °F 60.1 °F 93% 30.02 in 10.0 mi Calm Calm - N/A   Overcast
2:32 AM 60.8 °F 60.8 °F 100% 30.02 in 10.0 mi Calm Calm - N/A   Overcast
2:53 AM 61.0 °F 60.1 °F 97% 30.01 in 10.0 mi Calm Calm - N/A   Overcast
3:53 AM 61.0 °F 60.1 °F 97% 30.00 in 10.0 mi ENE 3.5 mph - N/A   Overcast
4:04 AM 60.8 °F 60.8 °F 100% 30.00 in 10.0 mi Calm Calm - N/A   Overcast
4:36 AM 60.8 °F 60.8 °F 100% 30.00 in 10.0 mi Calm Calm - N/A   Overcast
4:53 AM 61.0 °F 60.1 °F 97% 29.99 in 10.0 mi NE 3.5 mph - N/A   Overcast
5:53 AM 60.8 °F 60.8 °F 100% 30.00 in 8.0 mi Calm Calm - N/A   Overcast
6:01 AM 60.8 °F 60.8 °F 100% 30.01 in 8.0 mi Calm Calm - N/A   Overcast
6:53 AM 61.0 °F 61.0 °F 100% 30.01 in 5.0 mi Calm Calm - N/A   Overcast
7:03 AM 60.8 °F 60.8 °F 100% 30.01 in 2.0 mi ENE 3.5 mph - N/A   Overcast
7:53 AM 61.0 °F 60.1 °F 97% 30.02 in 2.0 mi East 4.6 mph - N/A   Overcast
8:17 AM 60.8 °F 60.8 °F 100% 30.02 in 1.0 mi East 6.9 mph - N/A   Overcast
8:53 AM 62.1 °F 60.1 °F 93% 30.03 in 3.0 mi Calm Calm - N/A   Overcast
9:44 AM 62.6 °F 60.8 °F 94% 30.03 in 3.0 mi East 3.5 mph - N/A   Overcast
9:53 AM 63.0 °F 61.0 °F 93% 30.03 in 5.0 mi ENE 4.6 mph - N/A   Overcast
10:53 AM 64.0 °F 60.1 °F 87% 30.02 in 10.0 mi Calm Calm - N/A   Overcast
11:53 AM 64.9 °F 61.0 °F 87% 30.00 in 10.0 mi Calm Calm - N/A   Overcast
12:53 PM 68.0 °F 61.0 °F 78% 29.97 in 10.0 mi Calm Calm - N/A   Mostly Cloudy
1:22 PM 68.0 °F 60.8 °F 78% 29.96 in 10.0 mi Calm Calm - N/A   Overcast
1:53 PM 68.0 °F 61.0 °F 78% 29.96 in 10.0 mi ENE 3.5 mph - N/A   Overcast
2:53 PM 68.0 °F 61.0 °F 78% 29.94 in 10.0 mi NW 3.5 mph - N/A   Overcast
3:43 PM 68.0 °F 60.8 °F 78% 29.94 in 10.0 mi Calm Calm - N/A   Mostly Cloudy
3:53 PM 68.0 °F 61.0 °F 78% 29.94 in 10.0 mi Calm Calm - N/A   Mostly Cloudy
4:53 PM 66.9 °F 62.1 °F 84% 29.93 in 10.0 mi Calm Calm - N/A   Mostly Cloudy
5:07 PM 66.2 °F 62.6 °F 88% 29.94 in 10.0 mi Calm Calm - N/A   Overcast
5:53 PM 66.9 °F 63.0 °F 87% 29.95 in 10.0 mi ESE 4.6 mph - N/A   Overcast
6:53 PM 66.2 °F 62.6 °F 88% 29.95 in 10.0 mi ESE 4.6 mph - N/A   Overcast
7:00 PM 64.4 °F 62.6 °F 94% 29.95 in 10.0 mi ESE 6.9 mph - N/A   Overcast
7:53 PM 64.0 °F 62.1 °F 93% 29.94 in 10.0 mi ESE 5.8 mph - N/A   Clear
8:53 PM 63.0 °F 61.0 °F 93% 29.95 in 10.0 mi ESE 4.6 mph - N/A   Partly Cloudy
9:53 PM 61.0 °F 61.0 °F 100% 29.95 in 10.0 mi ESE 4.6 mph - N/A   Clear
10:53 PM 61.0 °F 61.0 °F 100% 29.96 in 3.0 mi Calm Calm - N/A   Partly Cloudy
11:10 PM 60.8 °F 60.8 °F 100% 29.96 in 3.0 mi Calm Calm - N/A   Mostly Cloudy
11:24 PM 60.8 °F 60.8 °F 100% 29.95 in 1.8 mi Calm Calm - N/A   Mostly Cloudy
11:33 PM 60.8 °F 60.8 °F 100% 29.95 in 0.5 mi Calm Calm - N/A Fog Fog
11:42 PM 60.8 °F 60.8 °F 100% 29.95 in 0.5 mi Calm Calm - N/A Fog Fog
11:53 PM 60.1 °F 60.1 °F 100% 29.95 in 0.5 mi Calm Calm - N/A Fog Fog